Theta_e
311 309 309 310 310 311 310 309 310 310 311 312 311 312 313 314 312 311 314 315 316 316 317 317 317 317 316 315 315 315 313 312 310 308 306 305 305 305 303 302 300 300 299 298
310 309 309 309 309 310 310 311 311 311 311 310 311 312 312 311 313 314 312 314 315 315 316 317 316 316 315 316 316 315 314 313 311 309 308 306 307 306 304 303 301 300 299 298
311 311 310 310 310 311 310 310 311 311 311 309 309 312 310 309 311 313 314 314 313 314 315 316 317 316 315 315 315 315 314 313 311 309 307 306 304 303 302 302 301 300 298 297
309 310 310 310 311 311 312 310 311 312 311 312 310 313 312 310 310 310 312 313 313 314 316 316 316 315 315 315 315 314 314 313 311 309 308 307 307 306 306 305 303 300 298 297
309 311 310 310 311 310 313 310 310 310 309 310 310 310 313 309 310 311 311 313 315 316 316 316 316 315 315 314 314 314 313 312 311 309 308 307 306 305 306 305 303 300 299 298
309 310 310 309 310 308 309 311 310 306 307 311 311 311 313 309 310 310 310 313 315 316 316 316 313 315 315 314 314 313 312 311 310 309 308 307 306 306 305 304 303 302 300 298
307 308 308 310 310 309 310 310 311 310 310 313 309 309 313 310 310 309 310 313 316 316 316 315 314 314 313 314 313 313 311 311 310 309 308 306 306 306 305 305 304 303 301 300
309 312 308 307 310 310 308 311 312 310 312 313 306 310 313 309 310 312 312 313 315 316 315 313 314 314 313 313 313 312 310 310 310 309 308 307 306 306 306 305 304 303 301 300
308 309 308 307 308 309 309 310 310 310 300 306 310 310 311 309 307 307 308 312 311 313 313 313 313 313 313 313 312 312 311 310 309 309 307 307 306 306 306 305 304 303 302 299
309 311 307 305 306 306 308 308 311 309 311 311 310 310 312 311 310 309 309 306 311 311 311 311 312 312 312 312 311 311 311 310 310 309 308 307 307 307 306 305 305 303 302 299
308 309 311 306 306 309 306 308 307 308 312 315 316 314 314 313 307 307 306 309 312 311 311 311 311 311 310 310 310 310 310 309 309 309 309 308 308 307 304 304 303 303 301 299
308 311 314 313 311 305 306 308 309 312 313 310 313 314 312 311 308 306 306 309 310 311 311 311 311 310 310 310 310 310 310 310 310 309 309 309 308 307 305 303 303 302 301 299
308 311 314 313 310 310 309 309 308 309 310 313 313 313 312 312 311 309 306 310 310 310 312 310 310 311 311 311 310 310 310 310 309 309 309 308 307 306 305 304 303 301 300 297
311 312 313 315 313 311 310 309 310 309 311 312 312 311 311 311 310 310 311 311 311 311 311 311 311 310 311 311 311 311 309 309 309 309 309 307 306 306 305 304 303 301 299 297
311 314 313 313 312 312 313 314 313 310 309 310 311 310 309 309 310 310 310 309 309 309 309 310 310 311 311 312 312 311 310 309 310 309 309 308 307 306 304 303 302 300 298 296
305 312 311 313 312 311 312 312 312 313 314 313 314 313 312 312 312 312 312 311 311 310 310 310 310 310 310 310 310 310 310 309 311 310 309 308 307 305 303 302 300 299 296 295
304 306 308 309 309 310 312 313 312 312 312 313 314 312 311 311 311 311 310 306 303 304 304 303 305 308 309 310 310 310 311 311 310 310 309 307 306 305 303 301 299 298 296 294
302 302 304 306 306 308 308 310 310 311 311 306 303 301 300 299 299 302 302 300 300 299 300 299 300 302 304 307 308 310 310 310 310 309 308 307 305 304 302 300 298 297 295 293
299 301 305 306 306 307 308 304 303 305 303 294 295 295 297 296 297 303 297 296 297 297 297 297 297 299 301 302 305 307 307 308 308 308 307 307 306 304 301 299 298 296 294 293
298 302 305 307 309 311 296 297 293 298 304 293 293 295 296 295 296 295 295 296 296 297 298 296 294 297 299 302 301 304 305 306 307 307 308 308 305 302 301 299 298 296 294 292
286 286 292 296 297 298 292 293 292 304 294 292 294 295 294 295 295 293 292 292 291 292 292 294 294 293 298 301 303 303 301 301 302 302 305 305 304 302 298 296 295 294 292 290
289 292 293 290 288 294 290 291 289 290 291 293 293 291 291 291 290 290 290 290 291 291 291 292 292 293 295 298 300 301 302 302 298 299 300 300 299 298 297 295 293 291 290 289
288 291 289 289 289 290 290 290 289 290 292 290 288 289 289 288 288 288 288 289 289 289 289 290 291 291 292 294 297 297 299 301 301 302 302 298 295 293 292 292 291 289 288 287
287 288 287 286 288 288 289 288 289 289 288 287 287 287 286 284 284 285 285 285 285 285 285 286 288 290 290 292 293 295 297 298 299 301 301 301 297 294 291 290 288 288 287 286
287 288 287 288 289 288 288 288 288 287 285 285 285 283 283 282 282 281 281 281 281 282 282 283 284 285 287 288 289 290 291 293 295 297 299 301 300 298 297 295 291 289 288 287
289 289 288 288 289 289 289 288 286 284 282 280 280 280 281 279 279 279 279 279 279 279 279 279 279 280 281 282 284 287 288 290 292 294 294 295 298 299 297 293 289 289 285 284
Wind_Speed
7 4 10 22 17 18 2 6 9 8 6 5 10 17 20 29 18 24 35 42 45 44 50 43 44 44 43 44 45 46 44 45 45 45 43 43 44 44 43 40 37 36 34 32
1 9 19 7 6 8 11 19 20 18 17 6 16 24 14 12 24 32 32 40 49 50 53 53 53 51 44 42 44 48 49 48 46 46 46 46 44 44 43 41 39 38 37 34
15 10 14 10 8 9 16 14 18 18 6 4 11 26 14 10 26 37 40 46 45 48 53 53 52 49 41 39 41 46 51 49 47 46 47 47 44 43 43 44 43 42 39 36
8 12 16 7 8 14 20 13 16 14 2 9 3 23 2 7 15 17 31 37 45 48 50 53 55 47 37 37 39 43 49 50 47 47 47 50 49 45 46 46 45 43 40 38
10 3 5 10 21 10 16 6 7 3 4 4 7 5 4 10 10 17 22 36 44 46 46 48 46 39 33 34 36 42 47 50 48 47 46 46 47 45 43 44 44 42 40 40
14 4 5 8 4 8 1 2 3 4 3 5 13 11 32 7 11 9 12 34 43 43 44 50 35 23 28 32 35 42 47 49 47 44 44 46 45 44 44 45 43 42 42 41
3 6 5 8 5 3 4 5 3 3 0 9 3 8 29 6 6 10 16 29 37 41 42 43 31 25 28 32 37 43 45 47 45 44 44 45 44 44 43 43 43 43 43 44
3 18 9 5 12 9 10 12 6 8 10 16 6 8 15 12 14 26 32 39 40 44 42 34 26 22 25 29 35 40 42 45 44 44 44 43 44 44 43 43 43 43 43 42
6 10 2 5 3 9 3 6 15 5 1 1 6 15 16 13 10 9 16 30 36 43 43 30 25 24 25 28 33 35 39 41 41 41 42 45 46 46 46 45 43 42 42 41
6 11 2 4 2 4 7 1 1 2 3 7 8 7 13 20 10 14 14 16 35 35 36 26 25 24 24 26 28 30 33 39 38 39 42 44 46 47 47 47 45 44 42 41
2 6 10 1 7 7 1 4 4 1 4 15 18 12 30 24 10 8 10 13 20 16 15 18 22 23 22 21 24 27 31 35 38 38 37 39 43 48 51 51 48 45 42 40
9 5 6 20 19 6 7 11 16 12 16 11 16 19 28 21 7 8 9 19 15 18 20 18 18 20 19 18 24 25 27 31 32 34 38 40 44 46 49 52 50 47 44 41
5 3 7 4 10 19 15 18 19 17 18 24 21 19 30 25 25 18 15 29 29 31 28 17 12 15 19 20 23 27 30 32 33 37 39 42 45 47 46 48 48 47 46 43
13 16 18 19 19 3 6 19 22 23 17 25 22 29 29 34 25 22 28 39 37 39 40 39 37 34 36 38 36 36 38 32 31 34 41 45 45 44 43 44 46 46 45 44
8 19 20 24 28 29 29 28 26 22 24 17 24 23 22 31 33 24 25 23 20 27 32 35 36 40 46 48 44 44 37 35 38 42 45 46 44 43 44 45 44 44 43 42
8 9 16 24 25 27 31 32 31 35 33 27 29 30 29 35 47 36 32 34 28 29 34 40 42 44 50 45 35 40 46 47 44 45 45 44 45 44 44 44 42 42 42 42
9 7 9 21 15 16 23 31 31 31 28 22 26 30 28 27 24 27 27 20 22 27 32 31 33 37 43 48 49 51 49 51 50 44 45 43 43 43 42 40 41 41 42 40
22 22 14 20 19 29 23 12 18 27 31 15 13 17 16 18 28 23 24 28 29 31 34 40 43 39 34 42 45 47 46 39 40 44 41 39 39 39 39 38 38 39 41 41
23 20 9 10 18 22 18 8 7 6 4 16 15 20 14 28 29 5 31 34 34 34 38 42 45 45 45 35 28 28 36 41 40 39 33 34 35 35 36 36 37 39 40 41
11 9 13 10 13 7 7 14 25 11 11 21 13 15 12 22 11 13 39 35 38 40 41 46 45 44 44 41 33 24 24 32 33 30 28 30 32 33 34 36 36 38 39 40
4 5 9 14 13 7 15 20 28 5 11 22 13 16 19 11 13 29 37 36 39 38 41 44 45 44 36 38 34 30 21 22 24 25 25 27 29 30 32 33 36 38 40 42
5 5 3 5 5 12 30 18 8 11 22 14 14 17 20 24 33 35 36 40 38 42 40 35 39 42 38 32 35 32 27 22 21 19 19 24 27 30 33 32 35 37 40 43
4 4 3 6 6 21 22 15 27 25 8 10 23 33 31 30 29 30 33 33 35 37 39 38 36 40 44 37 31 33 31 32 30 23 20 22 26 28 32 34 37 39 43 45
4 4 4 3 7 14 25 29 18 13 21 28 25 27 31 26 30 28 29 37 37 40 40 37 36 38 44 40 37 32 30 30 32 31 33 31 25 26 29 30 36 40 44 49
7 4 7 10 17 25 21 26 22 22 23 22 25 33 30 20 35 30 32 37 38 38 39 36 34 38 44 42 45 41 32 35 35 35 36 34 32 31 30 31 39 44 47 49
15 17 12 16 24 21 28 34 26 24 18 25 29 28 35 29 32 35 39 41 37 40 40 45 46 45 49 46 48 41 36 34 37 39 39 40 38 37 37 37 42 43 47 45
Wind_Direction
181 138 210 227 211 229 195 225 233 248 249 206 235 241 247 266 261 248 260 265 263 262 267 262 256 257 257 253 249 246 239 239 231 226 224 225 227 227 228 229 230 232 234 236
153 214 226 240 216 227 243 253 261 269 261 230 266 259 245 247 263 266 253 255 262 265 269 268 263 263 260 257 253 245 239 238 234 229 227 228 229 230 232 232 232 233 234 236
227 228 228 223 233 234 232 234 252 255 297 233 295 278 234 241 246 263 265 262 262 260 266 267 264 264 264 256 248 242 240 237 233 229 225 228 229 230 230 230 232 233 234 235
237 246 227 195 221 212 263 218 251 260 278 274 146 295 163 210 232 248 261 262 261 266 266 266 264 263 255 255 250 243 239 235 231 229 227 228 229 228 230 232 234 234 234 236
243 196 189 219 234 185 258 187 228 229 201 341 184 252 250 217 235 247 252 259 264 268 269 265 262 264 261 251 245 240 235 231 228 228 231 231 232 234 236 236 236 236 238 239
249 205 201 220 196 200 179 86 50 51 98 278 233 192 283 197 210 235 253 256 265 269 266 268 272 257 248 242 238 237 231 228 228 229 231 232 232 234 234 235 235 236 239 239
327 230 230 188 238 185 171 102 293 326 122 230 172 175 256 261 258 223 235 254 265 267 267 263 270 239 231 233 235 235 229 226 227 228 231 233 233 236 236 238 239 238 237 238
216 288 176 168 205 199 206 199 189 204 247 261 110 229 261 226 237 242 248 253 266 264 268 267 250 235 235 226 234 235 230 226 227 229 232 232 232 235 237 239 241 242 243 244
198 258 193 189 174 157 196 191 231 288 355 21 261 273 298 269 271 293 273 270 266 264 270 260 231 228 231 228 232 236 233 229 231 234 235 234 234 235 237 240 240 243 245 245
252 267 346 17 333 250 194 173 84 214 204 235 225 243 260 275 289 277 289 278 283 284 273 253 238 236 226 233 236 236 236 236 236 235 236 239 240 241 241 242 242 242 245 245
209 227 262 2 206 222 242 245 227 244 198 256 264 255 261 277 266 273 280 332 351 331 318 272 248 237 235 235 238 236 236 233 236 237 241 244 247 247 245 245 244 244 245 245
208 188 220 242 265 221 220 248 238 239 246 238 254 254 268 271 256 276 264 292 314 326 320 297 270 254 247 240 239 236 234 235 238 241 242 245 247 248 248 248 247 246 246 244
184 228 258 202 271 269 247 246 234 247 254 253 256 260 262 268 270 246 259 283 298 305 305 300 289 275 264 253 244 249 249 242 237 240 245 247 247 247 249 251 250 248 245 241
238 250 247 258 258 242 233 235 245 243 251 253 250 259 266 270 267 266 266 271 281 287 288 289 284 276 274 279 272 273 258 247 251 253 255 251 250 252 252 250 249 246 244 239
230 252 248 251 252 262 258 260 261 243 240 241 256 257 257 268 269 269 272 280 295 295 289 285 278 274 274 273 269 263 255 250 266 262 258 256 256 253 250 248 246 244 242 238
315 282 283 271 253 243 249 255 256 256 256 262 262 259 256 263 275 282 278 289 285 283 284 280 279 276 277 273 263 260 271 267 268 258 256 254 252 250 246 245 243 241 237 233
264 279 282 273 290 298 279 245 254 258 266 258 259 261 266 273 280 290 310 23 21 352 347 344 323 301 285 279 274 271 272 272 265 256 252 249 249 248 247 243 239 238 234 230
254 261 259 274 289 268 270 230 234 247 255 309 12 20 16 352 323 325 23 19 1 349 341 339 345 344 317 292 284 279 275 263 256 255 250 246 246 246 243 239 236 233 228 226
232 244 262 254 260 273 253 30 344 339 132 25 343 347 1 352 339 62 357 343 328 327 329 331 333 332 336 333 299 283 271 259 250 244 243 247 247 243 240 235 232 229 224 223
323 276 259 285 281 285 24 345 331 291 207 16 351 329 8 343 341 316 329 331 330 329 325 327 330 330 332 335 342 308 278 257 249 244 245 250 247 244 240 235 232 230 226 225
350 319 257 267 273 286 13 359 345 286 337 335 341 353 337 341 329 318 321 321 320 319 314 320 321 323 330 329 335 347 311 272 251 244 251 254 252 247 241 235 231 226 221 219
277 287 355 345 313 253 359 351 348 293 312 328 345 337 321 308 308 308 309 312 315 316 316 313 318 316 315 315 321 320 324 323 304 293 275 265 257 249 242 235 231 224 221 220
274 180 222 187 234 295 310 304 307 301 289 314 325 319 316 311 308 305 308 311 311 307 305 308 311 312 310 301 299 314 312 307 301 301 295 283 262 247 241 236 231 221 219 219
261 242 211 316 261 279 286 294 287 301 311 312 308 301 307 305 304 306 308 309 307 305 306 308 310 306 302 304 302 283 296 303 284 281 277 274 262 255 244 239 235 228 224 221
233 279 245 268 277 282 283 294 306 300 303 290 299 306 306 305 305 306 305 304 304 304 306 307 306 299 293 293 291 290 285 288 288 272 263 257 250 245 247 249 241 236 233 231
240 254 260 265 278 289 288 295 302 304 304 311 312 307 307 306 303 306 305 306 300 300 300 302 305 300 292 291 286 284 288 290 289 275 266 254 247 244 242 240 237 232 234 233